Regional Weather Roundup
Issued by NWS Newport/Morehead, NC

Current Version | Previous Version | Text Only | Print | Product List | Glossary Off
Versions: 1 2 3 4 5 6 7 8 9 10 11 12 13 14 15 16 17 18 19 20 21 22 23 24 25 26 27 28 29 30 31 32 33 34 35 36 37 38 39 40 41 42 43 44 45 46 47 48 49 50
015 ASUS42 KMHX 231825 RWRMHX WEATHER ROUNDUP FOR EASTERN NORTH CAROLINA NATIONAL WEATHER SERVICE NEWPORT/MOREHEAD CITY NC 200 PM EDT FRI JUN 23 2017 NOTE: "FAIR" INDICATES FEW OR NO CLOUDS BELOW 12,000 FEET WITH NO SIGNIFICANT WEATHER AND/OR OBSTRUCTIONS TO VISIBILITY NCZ015>017-031-032-045>047-102-103-231900- NORTH COAST CITY SKY/WX TMP DP RH WIND PRES REMARKS EDENTON CLOUDY 87 76 71 SW10 29.95F ELIZABETH CITY PTSUNNY 85 77 77 SW17G26 29.93F KITTY HAWK CLOUDY 84 74 71 SW3 29.93F MANTEO CLOUDY 84 74 71 SW15 29.95F $$ NCZ045>047-081-094-103-104-231900- CENTRAL COAST CITY SKY/WX TMP DP RH WIND PRES REMARKS FRISCO CLOUDY 84 76 76 SW12G22 30.00F $$ NCZ095-097-098-100-101-231900- SOUTHERN COAST CITY SKY/WX TMP DP RH WIND PRES REMARKS BEAUFORT MOSUNNY 86 80 82 SW20G29 29.99F HX 101 CEDAR ISLAND NOT AVBL JACKSONVILLE MOSUNNY 89 77 67 SW9G17 29.97F HX 101 PINEY ISLAND CLOUDY N/A N/A N/A SW17G24 29.98F WILMINGTON MOSUNNY 88 77 69 SW13 29.99F HX 100 $$ NCZ011>013-027>030-043-044-078>080-089-090>093-098-231900- COASTAL PLAIN CITY SKY/WX TMP DP RH WIND PRES REMARKS AHOSKIE N/A 85 77 76 S5 29.91F CLINTON PTSUNNY 88 77 71 SW7 29.98F HX 100 ELIZABETHTOWN NOT AVBL GOLDSBORO PTSUNNY 89 79 71 SW16 29.94F HX 104 GREENVILLE MOSUNNY 90 77 66 SW13G20 29.96F HX 102 HAVELOCK PTSUNNY 89 76 65 S12 29.98F HX 100 KENANSVILLE PTSUNNY 88 75 66 SW8G22 29.97F KINSTON PTSUNNY 90 75 62 SW14G21 29.96F HX 100 NEW BERN MOSUNNY 89 76 65 SW14G21 29.97F HX 100 RICHLANDS PTSUNNY 89 77 67 S15 29.98F HX 101 ROCKY MOUNT SUNNY 88 75 65 SW14 29.93F WASHINGTON SUNNY N/A N/A N/A SW15 29.95F WHITEVILLE PTSUNNY 87 75 67 S10 29.99F $$ AMZ130-135-150-152-154-156-158-170-250-252-270-ANZ085-086-088-633-658-670-231900- MARINE OBSERVATIONS STATION/POSITION TIME TEMP WIND PRES WAVE SWELL AIR SEA DIR/SP/G HT/PER HT/PER (UTC) (F) (DEG/KT/KT) (MB) (FT/S) (FT/S) CHESAPEAKE LIGHT NOT AVBL 64 E VA BEACH 1750 75 73 210/ 14/ 16 1013.8 3/ 8 2/ 8 DUCK 1800 82 65 200/ 13/ 19 1013.1 2 E DUCK NOT AVBL OREGON INLET 1800 81 81 190/ 18/ 20 1014.5 13E OREGON INLT 1748 72 N/A 3/10 2/10 HATTERAS CG 1800 81 79 220/ 11/ 16 1015.5 DIAMOND BUOY 1750 80 81 220/ 17/ 19 1015.8 3/ 8 2/ 8 CAPE LOOKOUT 1800 83 210/ 15/ 20 1015.7 BEAUFORT LAB 1800 83 79 210/ 12/ 17 1015.1 30 SE NEW RVR IN 1808 80 81 230/ 16/ 21 1016.6 30 SE NEW RVR IN 1813 81 N/A 4/ 5 27 SE WRIGHTSVLE 1808 80 80 220/ 14/ 19 1016.4 5 SE WRIGHTSVLE 1808 81 79 220/ 19/ 25 1015.6 225 S CAPE HAT 1750 81 82 220/ 12/ 14 1019.5 4/ 8 3/ 8 41 SE CHARLESTON 1810 81 81 210/ 16/ 17 1017.3 $$

USA.gov is the U.S. government's official web portal to all federal, state and local government web resources and services.